| time (UTC) | temp C | wind direction | speed KPH | gust KPH | rain 1hr cm | rain 24hr cm | rain mn cm | humidity % | barometer mb |
| 20260504175204 | 21 | 207 | 12.9 | 29.0 | 0.00 | 0.00 | 0.00 | 34 | 1008.7 |
| 20260504174705 | 20 | 236 | 9.7 | 29.0 | 0.00 | 0.00 | 0.00 | 35 | 1009.0 |
| 20260504174204 | 20 | 215 | 9.7 | 29.0 | 0.00 | 0.00 | 0.00 | 35 | 1009.1 |
| 20260504173704 | 20 | 224 | 11.3 | 25.7 | 0.00 | 0.00 | 0.00 | 34 | 1009.3 |
| 20260504173204 | 20 | 214 | 12.9 | 27.4 | 0.00 | 0.00 | 0.00 | 34 | 1009.2 |
| 20260504172704 | 20 | 241 | 8.0 | 20.9 | 0.00 | 0.00 | 0.00 | 35 | 1009.3 |
| 20260504172204 | 20 | 214 | 9.7 | 22.5 | 0.00 | 0.00 | 0.00 | 34 | 1009.2 |
| 20260504171704 | 20 | 284 | 8.0 | 24.1 | 0.00 | 0.00 | 0.00 | 34 | 1009.4 |
| 20260504171204 | 20 | 220 | 9.7 | 19.3 | 0.00 | 0.00 | 0.00 | 34 | 1009.6 |
| 20260504170204 | 20 | 229 | 12.9 | 24.1 | 0.00 | 0.00 | 0.00 | 34 | 1009.6 |
| 20260504160204 | 18 | 223 | 20.9 | 41.8 | 0.00 | 0.00 | 0.00 | 34 | 1010.1 |
| 20260504150704 | 18 | 211 | 11.3 | 25.7 | 0.00 | 0.00 | 0.00 | 35 | 1010.5 |
| 20260504150204 | 18 | 210 | 11.3 | 27.4 | 0.00 | 0.00 | 0.00 | 36 | 1010.7 |
| 20260504141204 | 16 | 232 | 8.0 | 32.2 | 0.00 | 0.00 | 0.00 | 41 | 1011.1 |
| 20260504140704 | 16 | 251 | 12.9 | 32.2 | 0.00 | 0.00 | 0.00 | 39 | 1011.2 |
| 20260504140204 | 16 | 227 | 9.7 | 35.4 | 0.00 | 0.00 | 0.00 | 41 | 1011.3 |
| 20260504120204 | 10 | 216 | 3.2 | 4.8 | 0.00 | 0.00 | 0.00 | 55 | 1012.2 |
| 20260504110704 | 9 | 218 | 1.6 | 4.8 | 0.00 | 0.00 | 0.00 | 58 | 1012.2 |
| 20260504110204 | 9 | 205 | 3.2 | 8.0 | 0.00 | 0.00 | 0.00 | 58 | 1012.2 |
| 20260504081704 | 6 | 205 | 0.0 | 3.2 | 0.00 | 0.00 | 0.00 | 66 | 1011.2 |
| 20260504080704 | 6 | 205 | 0.0 | 3.2 | 0.00 | 0.00 | 0.00 | 66 | 1011.3 |
| 20260504070205 | 6 | 264 | 0.0 | 0.0 | 0.00 | 0.00 | 0.00 | 65 | 1011.2 |
| 20260504060204 | 6 | 285 | 0.0 | 0.0 | 0.00 | 0.00 | 0.00 | 68 | 1011.2 |
| 20260504050704 | 5 | 285 | 0.0 | 0.0 | 0.00 | 0.00 | 0.00 | 67 | 1011.3 |
| 20260504050204 | 5 | 285 | 0.0 | 0.0 | 0.00 | 0.00 | 0.00 | 67 | 1011.3 |
| 20260504045704 | 6 | 285 | 0.0 | 0.0 | 0.00 | 0.00 | 0.00 | 67 | 1011.3 |
| 20260504044704 | 6 | 285 | 0.0 | 0.0 | 0.00 | 0.00 | 0.00 | 66 | 1011.3 |
| 20260504044204 | 6 | 285 | 0.0 | 0.0 | 0.00 | 0.00 | 0.00 | 64 | 1011.4 |
| 20260504042704 | 6 | 285 | 0.0 | 0.0 | 0.00 | 0.00 | 0.00 | 64 | 1011.3 |
| 20260504042204 | 6 | 285 | 0.0 | 0.0 | 0.00 | 0.00 | 0.00 | 66 | 1011.3 |
| 20260504041704 | 6 | 285 | 0.0 | 0.0 | 0.00 | 0.00 | 0.00 | 66 | 1011.3 |
| 20260504041204 | 6 | 285 | 0.0 | 0.0 | 0.00 | 0.00 | 0.00 | 66 | 1011.2 |
| 20260504040204 | 6 | 285 | 0.0 | 0.0 | 0.00 | 0.00 | 0.00 | 65 | 1011.2 |
| 20260504035204 | 6 | 285 | 0.0 | 0.0 | 0.00 | 0.00 | 0.00 | 65 | 1011.2 |
| 20260504034704 | 6 | 285 | 0.0 | 0.0 | 0.00 | 0.00 | 0.00 | 65 | 1011.2 |
| 20260504034204 | 6 | 285 | 0.0 | 0.0 | 0.00 | 0.00 | 0.00 | 63 | 1011.2 |
| 20260504033704 | 6 | 285 | 0.0 | 0.0 | 0.00 | 0.00 | 0.00 | 64 | 1011.1 |
| 20260504033204 | 7 | 285 | 0.0 | 0.0 | 0.00 | 0.00 | 0.00 | 63 | 1011.1 |
| 20260504032704 | 7 | 285 | 0.0 | 0.0 | 0.00 | 0.00 | 0.00 | 62 | 1011.0 |
| 20260504032205 | 7 | 285 | 0.0 | 0.0 | 0.00 | 0.00 | 0.00 | 62 | 1011.0 |
| 20260504031704 | 7 | 285 | 0.0 | 0.0 | 0.00 | 0.00 | 0.00 | 62 | 1011.0 |
| 20260504031204 | 7 | 285 | 0.0 | 0.0 | 0.00 | 0.00 | 0.00 | 61 | 1011.0 |
| 20260504030704 | 7 | 285 | 0.0 | 0.0 | 0.00 | 0.00 | 0.00 | 61 | 1011.1 |
| 20260504030204 | 7 | 285 | 0.0 | 0.0 | 0.00 | 0.00 | 0.00 | 59 | 1011.0 |
| 20260504025704 | 7 | 285 | 0.0 | 0.0 | 0.00 | 0.00 | 0.00 | 59 | 1011.0 |
| 20260504023704 | 7 | 285 | 0.0 | 0.0 | 0.00 | 0.00 | 0.00 | 58 | 1011.0 |
| 20260504023204 | 7 | 285 | 0.0 | 0.0 | 0.00 | 0.00 | 0.00 | 58 | 1010.9 |
| 20260504022704 | 8 | 285 | 0.0 | 0.0 | 0.00 | 0.00 | 0.00 | 57 | 1010.9 |
| 20260504021704 | 8 | 285 | 0.0 | 0.0 | 0.00 | 0.00 | 0.00 | 55 | 1010.8 |
| 20260504021204 | 8 | 285 | 0.0 | 0.0 | 0.00 | 0.00 | 0.00 | 56 | 1010.9 |
| 20260504020704 | 8 | 285 | 0.0 | 0.0 | 0.00 | 0.00 | 0.00 | 54 | 1010.8 |
| 20260504020204 | 8 | 285 | 0.0 | 0.0 | 0.00 | 0.00 | 0.00 | 54 | 1010.8 |
| 20260504015704 | 8 | 285 | 0.0 | 0.0 | 0.00 | 0.00 | 0.00 | 55 | 1010.7 |
| 20260504015204 | 8 | 285 | 0.0 | 0.0 | 0.00 | 0.00 | 0.00 | 55 | 1010.7 |
| 20260504014703 | 8 | 285 | 0.0 | 0.0 | 0.00 | 0.00 | 0.00 | 54 | 1010.6 |
| 20260504013704 | 8 | 285 | 0.0 | 0.0 | 0.00 | 0.00 | 0.00 | 54 | 1010.6 |
| 20260504012704 | 9 | 285 | 0.0 | 0.0 | 0.00 | 0.00 | 0.00 | 54 | 1010.6 |
| 20260504012204 | 9 | 285 | 0.0 | 0.0 | 0.00 | 0.00 | 0.00 | 55 | 1010.5 |
| 20260504011704 | 9 | 285 | 0.0 | 0.0 | 0.00 | 0.00 | 0.00 | 54 | 1010.5 |
| 20260504011204 | 9 | 285 | 0.0 | 0.0 | 0.00 | 0.00 | 0.00 | 53 | 1010.3 |
| 20260504010704 | 9 | 285 | 0.0 | 0.0 | 0.00 | 0.00 | 0.00 | 52 | 1010.3 |
| 20260504010204 | 9 | 285 | 0.0 | 0.0 | 0.00 | 0.00 | 0.00 | 50 | 1010.3 |
| 20260504005705 | 9 | 285 | 0.0 | 0.0 | 0.00 | 0.00 | 0.00 | 50 | 1010.2 |
| 20260504005204 | 10 | 285 | 0.0 | 0.0 | 0.00 | 0.00 | 0.00 | 50 | 1010.1 |
| 20260504004704 | 10 | 285 | 0.0 | 0.0 | 0.00 | 0.00 | 0.00 | 49 | 1009.9 |
| 20260504003704 | 10 | 285 | 0.0 | 0.0 | 0.00 | 0.00 | 0.00 | 46 | 1009.8 |
| 20260504003204 | 10 | 285 | 0.0 | 0.0 | 0.00 | 0.00 | 0.00 | 46 | 1009.7 |
| 20260504002204 | 11 | 285 | 0.0 | 0.0 | 0.00 | 0.00 | 0.00 | 46 | 1009.5 |
| 20260504001204 | 11 | 285 | 0.0 | 0.0 | 0.00 | 0.00 | 0.00 | 43 | 1009.4 |
| 20260504000705 | 11 | 285 | 0.0 | 0.0 | 0.00 | 0.00 | 0.00 | 41 | 1009.4 |
| 20260504000204 | 12 | 285 | 0.0 | 0.0 | 0.00 | 0.00 | 0.00 | 40 | 1009.3 |
| 20260503235704 | 12 | 285 | 0.0 | 0.0 | 0.00 | 0.00 | 0.00 | 39 | 1009.3 |
| 20260503235204 | 12 | 285 | 0.0 | 0.0 | 0.00 | 0.00 | 0.00 | 38 | 1009.2 |
| 20260503234204 | 12 | 282 | 1.6 | 3.2 | 0.00 | 0.00 | 0.00 | 36 | 1009.2 |
| 20260503233703 | 12 | 261 | 1.6 | 1.6 | 0.00 | 0.00 | 0.00 | 37 | 1009.1 |
| 20260503233204 | 12 | 306 | 0.0 | 3.2 | 0.00 | 0.00 | 0.00 | 36 | 1009.0 |
| 20260503232704 | 12 | 327 | 1.6 | 3.2 | 0.00 | 0.00 | 0.00 | 35 | 1009.0 |
| 20260503232205 | 12 | 281 | 1.6 | 8.0 | 0.00 | 0.00 | 0.00 | 36 | 1009.0 |
| 20260503231703 | 12 | 297 | 3.2 | 11.3 | 0.00 | 0.00 | 0.00 | 35 | 1009.0 |
| 20260503231204 | 12 | 255 | 1.6 | 11.3 | 0.00 | 0.00 | 0.00 | 35 | 1008.9 |
| 20260503230704 | 12 | 284 | 3.2 | 12.9 | 0.00 | 0.00 | 0.00 | 35 | 1008.9 |
| 20260503230204 | 12 | 313 | 4.8 | 14.5 | 0.00 | 0.00 | 0.00 | 36 | 1008.9 |
| 20260503225704 | 12 | 308 | 4.8 | 16.1 | 0.00 | 0.00 | 0.00 | 34 | 1008.9 |
| 20260503225204 | 12 | 306 | 8.0 | 14.5 | 0.00 | 0.00 | 0.00 | 34 | 1008.8 |
| 20260503224704 | 13 | 257 | 4.8 | 14.5 | 0.00 | 0.00 | 0.00 | 35 | 1008.8 |
| 20260503224204 | 13 | 11 | 4.8 | 12.9 | 0.00 | 0.00 | 0.00 | 36 | 1008.8 |
| 20260503223204 | 13 | 303 | 4.8 | 12.9 | 0.00 | 0.00 | 0.00 | 35 | 1008.9 |
| 20260503222703 | 13 | 344 | 3.2 | 11.3 | 0.00 | 0.00 | 0.00 | 35 | 1008.7 |
| 20260503222204 | 13 | 2 | 1.6 | 4.8 | 0.00 | 0.00 | 0.00 | 36 | 1008.7 |
| 20260503221704 | 13 | 336 | 4.8 | 8.0 | 0.00 | 0.00 | 0.00 | 36 | 1008.7 |
| 20260503221204 | 13 | 287 | 1.6 | 8.0 | 0.00 | 0.00 | 0.00 | 36 | 1008.6 |
| 20260503220704 | 13 | 338 | 4.8 | 11.3 | 0.00 | 0.00 | 0.00 | 35 | 1008.8 |
| 20260503220204 | 13 | 319 | 3.2 | 11.3 | 0.00 | 0.00 | 0.00 | 35 | 1008.8 |
| 20260503215704 | 13 | 3 | 4.8 | 12.9 | 0.00 | 0.00 | 0.00 | 36 | 1008.8 |
| 20260503215204 | 13 | 28 | 3.2 | 12.9 | 0.00 | 0.00 | 0.00 | 36 | 1008.8 |
| 20260503214204 | 13 | 301 | 3.2 | 22.5 | 0.00 | 0.00 | 0.00 | 38 | 1008.8 |
| 20260503213204 | 13 | 350 | 4.8 | 11.3 | 0.00 | 0.00 | 0.00 | 36 | 1008.8 |
| 20260503212204 | 13 | 256 | 8.0 | 19.3 | 0.00 | 0.00 | 0.00 | 36 | 1008.8 |
| 20260503211204 | 13 | 334 | 11.3 | 24.1 | 0.00 | 0.00 | 0.00 | 36 | 1008.9 |
| 20260503210704 | 13 | 294 | 4.8 | 12.9 | 0.00 | 0.00 | 0.00 | 37 | 1008.8 |
| 20260503210204 | 13 | 328 | 3.2 | 19.3 | 0.00 | 0.00 | 0.00 | 37 | 1008.7 |
| 20260503205704 | 13 | 307 | 9.7 | 25.7 | 0.00 | 0.00 | 0.00 | 37 | 1008.7 |
| 20260503204704 | 13 | 359 | 9.7 | 19.3 | 0.00 | 0.00 | 0.00 | 36 | 1008.6 |
| 20260503204204 | 13 | 321 | 9.7 | 22.5 | 0.00 | 0.00 | 0.00 | 37 | 1008.6 |
| 20260503203704 | 13 | 293 | 11.3 | 22.5 | 0.00 | 0.00 | 0.00 | 36 | 1008.6 |
| 20260503203204 | 13 | 273 | 4.8 | 14.5 | 0.00 | 0.00 | 0.00 | 39 | 1008.7 |
| 20260503202204 | 12 | 347 | 6.4 | 22.5 | 0.00 | 0.00 | 0.00 | 36 | 1008.7 |
| 20260503201704 | 12 | 278 | 8.0 | 19.3 | 0.00 | 0.00 | 0.00 | 38 | 1008.6 |
| 20260503201204 | 12 | 310 | 12.9 | 25.7 | 0.00 | 0.00 | 0.00 | 36 | 1008.6 |
| 20260503200704 | 12 | 322 | 9.7 | 32.2 | 0.00 | 0.00 | 0.00 | 36 | 1008.6 |
| 20260503200204 | 13 | 343 | 4.8 | 20.9 | 0.00 | 0.00 | 0.00 | 38 | 1008.6 |
| 20260503195704 | 13 | 275 | 6.4 | 19.3 | 0.00 | 0.00 | 0.00 | 38 | 1008.6 |
| 20260503195204 | 13 | 305 | 12.9 | 32.2 | 0.00 | 0.00 | 0.00 | 36 | 1008.6 |
| 20260503194704 | 13 | 303 | 8.0 | 19.3 | 0.00 | 0.00 | 0.00 | 38 | 1008.6 |
| 20260503194204 | 13 | 330 | 6.4 | 22.5 | 0.00 | 0.00 | 0.00 | 39 | 1008.4 |
| 20260503193704 | 13 | 283 | 11.3 | 24.1 | 0.00 | 0.00 | 0.00 | 37 | 1008.4 |
| 20260503193204 | 12 | 307 | 11.3 | 27.4 | 0.00 | 0.00 | 0.00 | 37 | 1008.4 |
| 20260503192704 | 12 | 285 | 8.0 | 20.9 | 0.00 | 0.00 | 0.00 | 39 | 1008.5 |
| 20260503192204 | 12 | 317 | 4.8 | 22.5 | 0.00 | 0.00 | 0.00 | 40 | 1008.5 |
| 20260503191704 | 12 | 354 | 9.7 | 19.3 | 0.00 | 0.00 | 0.00 | 40 | 1008.6 |
| 20260503191204 | 12 | 301 | 11.3 | 29.0 | 0.00 | 0.00 | 0.00 | 37 | 1008.5 |
| 20260503190704 | 12 | 305 | 3.2 | 19.3 | 0.00 | 0.00 | 0.00 | 39 | 1008.5 |
| 20260503190204 | 12 | 319 | 8.0 | 19.3 | 0.00 | 0.00 | 0.00 | 38 | 1008.6 |
| 20260503185704 | 12 | 331 | 4.8 | 22.5 | 0.00 | 0.00 | 0.00 | 38 | 1008.6 |
| 20260503185205 | 12 | 332 | 9.7 | 32.2 | 0.00 | 0.03 | 0.00 | 37 | 1008.5 |
| 20260503184704 | 12 | 291 | 9.7 | 22.5 | 0.00 | 0.03 | 0.00 | 36 | 1008.4 |
| 20260503184204 | 12 | 310 | 9.7 | 19.3 | 0.00 | 0.03 | 0.00 | 39 | 1008.5 |
| 20260503183704 | 12 | 331 | 6.4 | 16.1 | 0.00 | 0.05 | 0.00 | 39 | 1008.5 |
| 20260503183204 | 12 | 2 | 8.0 | 24.1 | 0.00 | 0.05 | 0.00 | 38 | 1008.4 |
| 20260503182704 | 12 | 319 | 3.2 | 16.1 | 0.00 | 0.08 | 0.00 | 39 | 1008.4 |
| 20260503182204 | 12 | 357 | 6.4 | 25.7 | 0.00 | 0.08 | 0.00 | 38 | 1008.6 |
| 20260503181704 | 12 | 12 | 3.2 | 19.3 | 0.00 | 0.08 | 0.00 | 39 | 1008.4 |
| 20260503181204 | 12 | 334 | 3.2 | 19.3 | 0.00 | 0.08 | 0.00 | 40 | 1008.4 |
| 20260503180704 | 12 | 284 | 6.4 | 16.1 | 0.00 | 0.08 | 0.00 | 38 | 1008.4 |
| 20260503180204 | 12 | 4 | 8.0 | 20.9 | 0.00 | 0.10 | 0.00 | 38 | 1008.4 |